GFSSGP_prec_cloud_057.txt.gz
Cloud_Cover
100 49 6 81 88 100 90 99 24 12 34 5 2 2 1 0 11 98 100 86 100 100 100 100 100 100 100 100 100 100 100 100 100 100 33 51 93 100 100 100 99 58 56 100 18 5 38 5 4
99 85 19 31 100 100 100 60 5 1 0 1 16 20 6 0 0 50 4 5 100 100 100 100 100 100 100 100 100 100 100 100 100 100 100 100 100 100 98 97 14 4 5 61 90 90 5 6 0
94 93 30 64 80 100 100 53 47 4 3 36 18 8 5 1 1 23 2 2 30 71 100 100 100 100 100 100 100 100 100 100 100 100 100 100 100 100 47 77 5 6 5 5 5 5 5 2 1
100 96 49 22 99 100 100 15 7 5 4 8 27 5 3 5 12 25 1 0 0 83 100 100 100 100 100 100 100 100 100 100 100 100 100 100 90 78 6 12 5 5 5 74 52 91 15 0 0
100 74 15 16 98 100 100 14 4 8 23 42 99 2 0 0 6 91 5 6 2 0 0 33 91 100 100 100 100 100 100 100 100 100 69 34 4 5 5 5 3 5 84 79 68 17 5 2 0
100 100 97 99 100 100 94 74 6 67 52 100 100 100 9 5 0 87 7 5 12 1 3 1 4 20 100 100 100 100 100 100 100 100 100 97 100 100 96 69 16 66 95 40 56 5 5 0 0
99 100 100 100 100 99 100 62 78 100 73 60 100 100 77 18 4 22 4 6 7 6 0 0 7 76 98 100 100 98 100 100 100 100 100 100 100 96 13 68 24 98 94 82 88 5 5 0 0
100 100 100 100 100 100 100 100 13 5 5 88 100 100 100 62 100 100 100 100 100 100 4 3 31 11 30 88 100 100 100 100 100 100 38 28 5 5 39 53 100 100 100 100 100 5 5 0 0
100 46 100 100 100 100 100 100 91 8 92 67 100 94 100 83 100 100 100 74 100 100 35 89 100 100 100 16 16 100 100 99 99 36 41 15 5 5 68 100 100 100 100 100 80 3 5 5 5
100 100 100 100 100 100 100 100 100 63 4 11 100 23 86 8 100 100 100 79 100 100 100 100 100 61 5 12 9 70 100 5 13 48 92 56 5 5 96 100 100 100 100 96 5 1 5 5 5
100 100 100 100 100 100 100 100 100 40 20 13 100 98 100 79 98 100 100 92 76 100 100 50 100 89 95 99 38 55 8 5 6 75 88 47 5 45 100 100 100 100 99 5 0 0 5 72 64
100 100 100 100 100 100 100 100 100 90 12 99 100 100 40 9 94 68 97 100 100 65 100 94 100 100 100 37 23 86 97 26 7 7 68 48 52 44 100 100 100 100 18 2 0 5 6 52 67
100 100 100 100 100 100 100 100 100 100 100 100 100 100 100 37 81 96 100 100 100 83 91 100 100 100 100 95 95 81 83 84 10 61 42 9 88 44 14 98 62 14 1 3 5 2 5 65 95
100 100 100 100 100 100 100 100 100 100 100 100 100 100 100 97 11 84 74 100 100 100 68 66 83 100 100 100 100 100 100 99 90 84 83 70 62 51 100 27 4 5 5 5 0 5 6 100 99
100 100 100 100 100 100 100 100 100 100 100 100 100 100 78 74 82 34 100 100 97 81 100 20 94 65 98 100 99 92 100 100 100 100 100 100 100 81 18 96 94 6 1 2 0 5 25 27 70
100 100 100 100 100 100 100 30 100 100 100 100 100 100 100 86 44 74 7 8 100 82 94 100 37 5 82 100 100 100 100 100 100 100 100 100 100 13 62 100 34 5 5 0 0 0 5 5 5
2 72 100 100 100 100 100 100 100 100 100 100 100 100 100 100 8 8 51 5 20 98 100 100 23 4 12 90 15 4 5 67 19 94 30 33 100 86 90 73 17 5 4 0 0 0 0 0 0
0 0 22 100 100 100 100 51 97 100 100 100 100 100 100 100 47 5 5 28 100 100 68 44 96 96 86 100 100 88 100 96 18 96 53 99 100 93 28 64 5 4 0 4 4 0 0 0 0
0 0 0 0 2 0 0 17 99 100 100 81 100 100 100 100 100 100 42 95 5 64 38 5 100 96 100 100 100 100 100 100 100 100 100 100 100 100 57 5 5 5 1 5 5 0 0 0 0
0 0 0 0 0 0 0 0 0 0 10 98 100 100 100 100 100 100 100 100 100 100 100 38 3 52 100 100 100 74 61 100 100 100 100 98 56 10 23 23 5 5 5 5 2 0 0 0 0
0 0 0 0 0 0 0 0 0 0 0 0 59 100 83 18 88 100 100 100 100 100 100 100 100 100 100 100 47 8 64 100 100 100 100 100 69 5 31 74 5 5 3 4 0 7 2 1 20
0 0 0 0 0 0 0 0 0 0 0 0 0 0 9 87 5 2 20 100 99 50 8 85 94 76 45 100 61 5 5 5 68 99 100 100 11 37 69 6 5 4 2 0 1 52 80 43 17
0 0 0 1 5 4 1 3 0 0 0 0 0 0 0 0 0 0 0 4 50 5 92 100 21 5 96 99 97 100 14 16 56 5 9 86 19 18 5 5 5 0 87 89 21 17 0 7 0
0 1 0 4 27 14 0 1 0 0 0 0 0 0 0 0 0 1 0 0 35 17 2 0 5 2 99 100 100 100 96 100 88 6 82 38 87 6 5 2 0 0 100 43 7 50 17 0 0
19 8 8 4 0 0 0 66 0 0 0 0 0 0 0 0 0 0 0 0 0 2 0 0 0 0 2 9 95 100 80 24 56 100 95 100 91 6 5 16 41 0 100 15 80 81 0 0 0
87 100 49 41 0 0 1 9 0 0 0 0 0 0 0 0 4 0 5 0 0 0 0 0 0 0 0 2 6 9 6 60 95 100 10 99 100 10 0 23 0 79 34 42 100 50 0 0 0
1 7 79 89 2 56 0 0 0 0 0 6 0 0 0 82 93 41 25 0 0 0 0 0 0 0 0 1 5 65 13 8 5 24 100 100 99 3 0 0 71 42 35 15 21 6 0 0 0
8 2 3 25 80 65 25 25 48 14 3 94 3 0 0 99 65 93 17 5 0 0 0 0 0 0 0 0 1 100 78 7 28 96 100 100 15 0 0 14 10 40 85 13 0 0 0 0 0
9 89 96 52 100 98 84 32 59 60 98 100 50 27 100 100 87 100 100 60 1 0 0 0 0 0 0 0 0 0 1 0 78 95 49 0 0 4 5 22 74 86 35 0 0 0 0 0 0
5 100 100 100 98 100 92 100 100 39 100 99 100 96 100 100 45 37 34 4 0 0 0 0 0 0 0 0 0 0 0 0 15 8 0 0 5 24 10 46 65 4 1 0 0 0 0 0 2

GFSSGP_prec_cloud_060.txt.gz
Cloud_Cover
72 16 88 70 83 100 100 99 0 5 0 0 2 5 2 42 99 100 100 22 47 99 50 100 100 100 100 100 100 100 100 87 99 100 98 72 100 100 100 100 94 100 5 5 9 5 5 10 18
100 56 86 100 100 100 100 100 59 0 0 3 4 1 0 5 90 100 100 8 1 4 98 100 100 100 100 100 73 100 100 100 75 31 99 100 100 100 99 92 98 30 8 35 61 76 97 56 55
100 100 98 100 100 100 100 100 5 0 0 0 14 45 0 0 4 67 29 1 0 4 12 96 100 100 100 100 100 100 100 100 100 100 100 100 100 100 100 100 100 100 100 100 100 63 100 99 96
100 97 100 100 100 100 100 95 10 0 5 1 0 0 0 2 0 21 5 5 1 1 0 5 70 100 100 100 100 100 100 100 100 100 100 100 100 100 100 100 100 100 100 86 100 100 100 100 100
100 100 100 100 100 100 100 99 100 5 0 1 0 0 0 4 4 4 5 5 5 4 0 5 5 10 95 100 100 100 100 100 100 100 100 100 100 100 100 100 81 14 5 100 100 100 100 100 100
100 88 40 100 100 100 100 100 100 93 5 6 5 26 6 1 1 0 5 3 5 5 4 5 5 5 1 3 11 34 96 100 100 100 100 100 100 100 99 28 33 10 5 24 100 100 100 100 99
100 100 97 100 100 100 100 100 100 74 76 91 44 32 17 42 27 7 76 94 73 2 5 5 5 66 98 94 19 75 48 75 100 100 100 100 100 100 84 100 73 34 5 98 100 100 100 13 5
100 100 100 100 100 100 100 100 94 5 45 82 58 6 6 6 11 13 2 50 85 44 89 99 72 100 100 100 100 100 98 100 100 100 100 100 100 5 5 11 99 5 8 100 100 100 7 5 32
100 100 100 100 100 100 100 100 100 16 97 36 98 49 68 97 22 10 13 14 89 100 100 100 100 100 100 100 100 19 5 6 50 74 100 100 95 27 5 7 11 11 6 52 38 29 5 5 5
100 100 100 100 100 100 100 100 100 100 100 100 100 11 98 98 61 65 5 5 29 97 100 100 99 91 64 100 100 53 5 100 100 77 90 100 90 23 5 5 5 5 5 34 14 69 12 0 6
100 100 100 100 100 100 100 100 100 79 97 100 83 47 76 100 98 78 95 100 100 30 97 82 32 5 79 100 100 79 21 25 76 95 100 100 100 98 9 18 94 74 100 65 97 0 3 0 18
100 100 100 100 100 100 100 100 100 100 100 100 100 7 85 100 46 10 67 100 100 100 91 100 100 100 100 100 100 100 100 100 100 100 100 100 100 100 5 55 100 100 100 98 5 23 18 21 10
100 100 100 100 100 100 100 100 100 100 100 100 100 100 15 55 37 64 4 18 100 100 99 95 100 100 100 100 100 89 16 99 97 63 100 100 100 100 37 62 87 14 3 6 9 10 5 18 7
100 100 100 100 100 100 100 100 100 100 100 100 100 100 100 98 100 11 4 4 100 100 100 100 100 82 83 100 100 100 100 93 98 100 100 99 100 100 84 48 3 5 5 34 5 8 9 5 5
100 36 88 100 100 100 100 100 100 100 100 100 100 100 100 99 65 5 5 3 6 100 100 100 100 100 100 100 100 99 100 93 86 100 100 8 100 30 16 5 5 5 54 87 42 100 67 5 5
100 100 91 100 100 100 100 100 100 100 100 100 100 100 100 100 100 16 16 4 46 8 15 6 5 58 100 100 100 100 90 100 94 35 99 100 95 58 100 42 6 91 100 100 100 100 70 5 5
26 34 100 100 100 100 100 100 100 100 91 76 70 99 100 99 68 38 56 34 12 29 12 59 90 100 100 100 86 100 68 100 91 70 100 100 100 100 100 99 100 100 100 100 60 100 37 0 0
0 17 16 100 100 100 100 80 100 100 100 100 100 100 100 100 100 100 100 100 100 100 72 23 50 83 99 100 84 100 100 100 90 100 100 100 100 100 100 100 100 97 100 39 73 45 1 0 0
0 0 0 10 100 100 100 100 100 100 100 100 100 100 100 100 100 100 100 100 100 100 100 100 100 88 38 100 100 100 92 67 73 97 100 100 100 100 100 91 100 100 100 35 24 3 0 0 22
0 0 0 0 0 1 86 100 100 100 100 100 100 100 100 100 100 100 100 95 100 96 59 26 3 71 96 100 100 100 100 100 100 46 39 37 87 93 90 17 57 97 100 58 5 6 32 32 45
0 0 0 0 0 0 0 5 72 96 100 100 100 100 100 100 100 100 100 100 100 100 86 98 92 38 48 98 100 100 100 100 100 67 36 5 4 100 35 10 99 39 47 5 1 16 16 15 55
0 0 0 0 0 0 0 0 2 0 9 89 100 100 100 100 99 72 75 100 100 100 100 100 100 100 100 100 100 100 100 94 92 99 6 7 26 100 100 86 35 96 6 8 0 38 6 24 85
0 0 0 0 0 0 0 0 0 0 0 0 0 6 71 100 78 80 100 98 98 99 100 88 43 100 100 100 100 100 100 100 100 100 100 100 83 100 100 100 99 99 56 5 0 10 5 95 100
0 0 0 0 0 0 0 0 0 0 0 0 0 0 0 0 1 4 8 5 1 0 1 3 6 8 68 100 100 100 100 100 92 5 84 64 100 93 100 100 100 71 61 1 19 56 5 25 1
0 2 3 2 0 0 0 0 0 0 0 0 0 0 0 0 0 0 0 0 0 0 0 0 0 4 95 79 70 100 100 95 63 8 32 100 70 18 33 100 66 82 100 4 99 10 20 100 0
5 2 5 12 5 0 0 0 0 0 0 0 0 0 0 0 0 0 0 0 0 0 0 0 0 0 0 0 6 90 16 4 0 0 20 60 15 52 100 87 5 68 99 2 5 77 100 26 0
0 0 1 43 4 5 0 0 0 0 0 0 0 0 0 0 0 0 0 0 0 0 0 0 0 0 0 0 0 0 2 0 0 0 0 12 5 100 95 40 17 100 73 79 3 27 98 0 1
0 19 23 24 12 12 1 5 4 2 0 0 0 0 0 0 0 0 21 0 0 0 0 0 0 0 0 0 0 0 0 0 0 7 9 18 8 15 49 99 100 23 65 100 34 34 21 0 0
1 34 44 5 87 67 64 61 45 3 4 2 0 0 0 0 0 5 29 0 0 0 0 0 0 0 0 0 0 0 0 0 1 3 8 14 80 58 92 100 44 90 100 64 36 71 0 0 0
5 19 5 51 72 82 94 17 100 6 66 0 0 0 0 0 5 100 97 3 0 0 0 0 0 0 0 0 0 0 0 0 13 11 10 6 3 0 0 0 64 99 100 98 44 0 0 0 0

GFSSGP_prec_cloud_063.txt.gz
Cloud_Cover
89 88 74 91 21 67 100 46 0 0 0 3 12 62 99 100 90 43 10 5 76 68 100 100 97 85 100 100 100 100 98 90 99 93 100 100 100 99 97 95 98 28 41 77 39 10 24 11 14
100 44 28 67 100 100 100 55 0 0 0 5 5 6 4 58 42 95 23 3 3 28 100 100 98 14 82 100 100 100 100 100 100 100 100 100 100 96 72 7 58 72 92 100 38 27 8 42 100
100 100 38 27 100 100 100 97 5 0 1 0 0 5 2 1 53 63 16 5 0 0 14 74 12 6 6 48 100 100 100 100 100 100 100 100 100 100 100 100 100 100 100 9 78 12 11 5 20
100 100 82 62 100 100 100 85 0 4 0 0 0 1 5 0 5 100 100 64 0 0 5 6 5 0 0 1 14 53 94 100 100 100 100 100 100 100 100 96 100 100 36 5 8 11 18 5 5
100 100 83 100 100 100 100 100 100 50 0 0 5 0 5 0 2 42 100 100 36 6 5 4 2 4 0 0 1 5 68 72 74 63 98 98 100 100 100 100 100 100 3 4 4 53 100 100 13
100 100 100 100 100 100 100 100 100 62 3 0 0 5 0 0 0 0 4 24 75 50 93 6 5 32 5 5 5 37 100 100 100 75 36 100 100 100 100 100 97 13 5 5 4 71 99 5 4
100 100 100 100 100 100 100 100 100 94 5 4 0 0 3 100 15 5 0 0 1 6 22 5 5 47 76 52 100 100 100 100 100 100 66 5 84 100 100 84 42 5 5 5 56 60 5 0 2
100 48 100 100 100 100 100 100 100 100 32 5 0 5 19 24 19 5 3 2 0 3 3 5 5 5 10 74 100 100 100 100 100 100 66 23 100 99 79 52 11 34 77 37 100 7 5 5 5
100 100 98 100 100 100 100 100 100 100 100 93 6 53 5 88 70 93 99 63 80 4 5 5 5 3 54 98 100 94 100 97 55 63 69 50 71 23 15 16 97 100 100 69 20 85 5 9 0
100 100 100 100 100 100 100 100 100 100 100 100 95 100 25 25 31 100 100 93 88 72 40 98 100 100 95 18 88 99 95 100 75 6 24 69 50 96 100 100 100 100 64 100 82 11 0 0 4
100 100 100 100 100 100 100 100 100 96 100 57 28 94 100 100 8 29 100 100 100 99 100 100 100 97 31 17 76 100 100 87 8 20 85 100 100 80 5 98 61 73 58 44 5 5 8 5 15
100 100 100 100 100 100 100 100 100 100 100 84 22 98 95 100 100 100 100 100 100 100 100 99 69 100 100 84 95 93 100 100 28 72 100 100 100 100 51 40 25 42 63 9 5 28 20 23 10
100 100 100 100 100 100 100 100 100 100 100 100 100 90 95 100 100 100 100 100 100 100 100 99 98 90 96 100 100 98 99 100 99 100 100 100 100 100 59 93 23 18 43 17 23 19 30 36 84
78 100 100 100 100 100 100 100 100 100 100 100 99 100 97 100 63 99 100 100 91 95 100 100 100 100 100 100 100 100 81 100 100 98 100 100 100 100 66 41 11 11 6 8 79 82 37 24 25
5 63 100 100 100 100 100 100 100 100 100 100 100 100 100 100 98 56 59 73 55 97 100 100 100 97 91 83 100 98 100 27 100 100 100 98 88 99 98 22 5 5 5 84 100 59 6 22 80
0 4 99 100 100 100 100 100 100 100 100 100 100 79 73 86 99 49 82 27 4 81 100 100 100 89 96 100 100 100 91 71 99 100 100 100 60 87 94 22 5 5 5 100 100 100 100 93 100
0 0 0 60 100 100 100 100 100 100 100 100 100 100 100 100 58 100 6 5 29 88 100 100 99 100 89 98 100 100 100 100 100 100 100 100 96 84 100 83 7 6 23 100 90 70 100 100 100
0 0 0 65 100 99 100 100 100 100 100 100 100 100 100 100 100 100 100 74 88 100 100 89 100 100 66 100 100 98 100 100 100 100 100 100 75 82 49 99 93 10 95 82 100 86 100 100 100
0 0 0 3 100 100 100 100 100 100 100 100 100 100 100 100 100 100 100 95 100 61 100 100 100 100 86 85 100 100 100 100 100 100 100 100 62 14 95 100 99 5 100 90 69 79 100 100 100
0 0 0 0 4 3 55 100 100 100 100 100 100 100 100 100 100 100 100 100 93 5 5 5 92 62 7 95 100 100 100 100 100 100 100 100 53 44 100 100 65 100 100 44 55 96 100 100 100
0 0 0 0 0 0 0 30 100 100 100 100 100 100 100 100 100 100 100 100 100 98 33 83 100 100 100 71 96 100 100 100 100 100 100 93 11 100 100 100 73 100 100 100 61 100 91 100 98
0 0 0 0 0 0 0 0 0 6 76 100 100 99 100 100 100 100 100 100 100 100 100 100 100 100 100 100 95 100 100 100 100 100 100 100 100 100 91 94 100 100 100 100 91 100 100 100 100
0 0 0 0 0 0 0 0 0 0 0 57 100 100 68 32 99 100 100 100 100 93 39 31 6 25 30 100 100 100 100 100 100 100 100 100 100 99 100 100 100 100 100 100 69 97 100 97 99
0 0 0 0 0 1 0 0 0 0 0 0 0 0 34 100 54 100 100 100 100 100 100 74 97 45 66 100 100 100 100 100 100 100 100 100 100 100 100 100 89 98 100 100 100 100 95 9 76
0 0 2 1 0 0 0 2 0 0 0 0 0 0 0 2 94 100 100 100 100 100 100 100 100 100 100 100 100 100 100 100 100 100 100 100 100 99 92 24 97 100 100 100 100 89 100 66 77
0 0 3 5 3 0 0 0 0 0 0 0 0 0 0 0 0 0 5 35 68 99 100 100 100 100 100 100 100 100 100 100 100 100 64 5 22 100 68 97 100 25 69 100 25 97 100 10 99
0 0 0 0 0 4 0 0 0 0 0 0 0 0 0 0 0 0 0 0 0 0 0 5 0 0 7 22 28 28 0 16 3 0 0 5 6 9 4 1 0 9 100 36 20 99 64 100 68
0 3 28 57 41 10 0 0 0 0 0 3 0 0 0 0 0 0 0 0 0 0 0 0 0 0 0 0 0 0 0 0 0 0 0 12 18 2 13 6 4 80 86 89 80 69 29 100 11
0 0 11 40 66 53 68 2 0 63 66 56 2 0 0 0 0 0 0 0 0 0 0 0 0 0 0 0 0 0 0 0 0 0 1 7 4 2 1 0 39 84 28 9 100 100 50 33 4
0 0 1 61 29 62 60 18 19 97 48 5 5 4 0 0 0 0 0 0 0 0 0 0 0 0 0 0 0 0 0 0 0 5 10 22 10 10 0 0 3 90 36 100 100 51 100 22 0

GFSSGP_prec_cloud_069.txt.gz
Cloud_Cover
97 100 100 56 6 4 5 4 0 4 5 5 5 27 52 5 5 0 4 0 1 5 5 78 52 65 46 5 5 5 0 0 0 0 0 5 2 6 100 13 1 5 5 5 12 3 0 1 0
100 100 100 80 47 58 39 4 0 3 4 5 5 7 32 35 5 3 14 5 24 57 74 57 88 57 6 5 4 4 0 0 0 0 0 0 40 100 99 37 40 57 26 22 42 2 0 1 3
100 100 100 100 91 100 97 48 0 0 2 5 3 5 28 11 98 6 1 4 10 29 65 23 11 18 5 5 5 5 5 5 5 2 4 7 94 100 88 100 100 100 62 5 5 5 5 1 5
100 100 100 100 100 100 100 11 0 0 0 1 1 5 5 5 13 39 6 5 0 26 78 10 5 13 8 5 5 5 5 5 4 5 34 100 30 5 11 99 98 32 5 5 5 5 41 83 14
100 100 100 100 100 100 100 78 0 0 0 0 2 4 4 5 7 6 5 5 0 2 2 2 15 5 13 0 0 0 0 0 3 5 5 84 15 6 5 2 0 5 3 5 5 5 99 100 86
100 100 100 100 100 100 100 100 1 0 0 0 0 1 4 5 5 5 3 5 5 1 0 0 11 2 16 3 3 1 1 5 5 4 5 24 6 5 5 5 4 5 5 18 100 100 100 100 98
100 100 100 100 100 100 100 100 93 1 1 3 3 0 5 5 9 10 5 12 98 56 3 0 0 2 16 5 1 1 0 2 5 5 5 5 1 4 0 1 15 6 5 29 24 3 12 10 13
100 100 100 100 100 100 100 100 100 45 30 0 0 0 0 25 77 100 91 42 22 100 68 5 0 0 3 5 3 10 26 12 4 5 5 4 0 0 0 0 0 0 1 2 2 0 5 0 0
52 99 100 100 100 100 100 100 100 100 100 31 4 2 0 0 66 62 93 37 44 55 100 65 7 5 5 2 5 23 15 26 6 11 9 7 0 0 0 2 1 0 0 3 0 0 0 0 0
5 38 100 100 100 100 100 100 100 100 100 98 95 3 5 5 8 42 5 5 50 98 15 23 46 21 5 14 5 10 5 5 15 4 0 3 2 29 7 0 0 4 0 1 0 0 0 0 0
5 19 80 100 100 100 100 100 100 100 100 100 100 93 24 36 98 96 99 4 100 100 100 73 28 20 26 93 68 5 72 70 34 5 8 2 5 8 39 5 2 2 2 5 0 0 3 3 0
0 12 22 6 18 96 100 100 100 100 100 100 100 100 75 99 82 100 100 92 86 90 100 100 100 100 100 100 98 8 40 68 100 62 61 5 5 5 5 5 5 0 5 5 5 5 5 4 5
0 0 0 5 7 82 100 100 100 100 100 100 100 100 100 100 97 84 100 91 43 81 87 100 100 100 97 100 97 54 100 100 100 88 100 90 25 87 10 52 18 4 6 78 5 5 13 5 5
0 0 0 0 10 62 92 100 100 100 100 100 100 100 100 100 100 100 99 100 97 100 100 100 100 100 100 100 100 80 97 96 100 83 98 99 58 74 5 9 70 3 5 80 49 2 5 5 9
0 0 0 0 0 0 47 32 100 100 100 100 100 100 100 100 100 100 100 98 100 100 100 100 100 100 76 100 98 100 100 100 100 100 100 100 100 95 75 72 84 82 87 96 92 8 11 5 84
0 0 0 0 0 0 0 85 100 100 100 100 100 100 100 100 100 100 100 100 100 100 100 100 100 100 100 100 100 100 100 97 100 100 100 100 100 100 91 100 97 100 73 100 88 63 16 32 100
3 0 0 0 0 0 0 38 100 100 100 100 100 100 100 100 59 77 100 100 100 100 100 100 100 100 97 100 100 100 93 99 100 100 100 100 100 100 100 100 100 100 75 100 92 95 21 39 100
5 4 0 0 0 0 0 0 21 99 100 100 100 100 100 100 100 95 80 100 100 100 100 100 100 100 100 86 77 100 89 100 100 100 100 96 81 99 98 100 100 100 95 100 100 57 64 39 100
5 5 5 0 0 0 0 0 0 2 100 100 100 100 100 100 100 100 100 98 29 97 100 100 100 100 100 100 93 97 100 100 100 100 100 100 98 12 100 100 100 100 100 100 90 100 5 84 100
74 13 18 5 0 0 0 0 0 0 2 100 100 100 100 100 100 100 99 83 100 95 98 100 100 100 100 100 97 77 100 94 100 99 100 100 76 99 100 100 100 100 100 100 100 35 5 100 100
26 56 5 5 2 0 0 0 0 0 0 32 100 100 100 100 100 100 100 100 76 100 100 98 58 95 74 89 47 71 75 11 84 100 100 100 28 30 75 100 100 100 100 83 100 44 64 100 100
5 5 5 5 29 2 0 0 0 0 0 0 3 100 100 100 100 100 100 100 100 100 100 99 100 100 100 92 99 52 57 38 91 100 100 100 66 87 78 82 83 100 62 100 100 100 100 100 100
5 6 5 0 10 6 6 0 0 0 0 0 0 1 100 100 100 100 100 100 100 100 100 78 88 100 68 48 86 98 84 35 100 100 92 100 96 99 71 77 93 61 50 100 100 100 100 100 100
0 4 21 27 4 15 90 3 0 0 0 0 0 0 0 33 100 100 100 100 100 100 100 89 77 97 100 55 13 12 7 93 100 100 100 100 100 100 86 99 73 96 96 100 100 100 100 100 100
5 0 0 2 7 33 6 6 56 0 0 0 0 0 0 0 2 49 100 100 100 100 100 100 57 100 100 100 100 98 95 100 100 100 100 100 100 100 100 100 100 100 100 100 100 100 100 100 100
21 40 9 2 0 1 5 6 9 5 0 0 0 0 0 0 0 3 0 53 94 100 100 100 100 100 100 100 100 100 100 100 100 100 100 100 100 100 96 84 100 98 100 100 100 100 100 100 100
4 4 10 5 1 0 0 0 5 33 0 0 0 0 0 0 0 4 2 0 0 1 5 65 72 18 99 100 100 100 100 100 100 100 100 100 100 100 100 100 100 100 100 100 100 100 100 64 91
0 1 10 28 3 5 0 1 5 1 0 0 0 0 0 0 0 0 0 0 0 0 0 0 1 12 10 0 2 55 100 100 100 100 100 100 100 100 100 100 100 100 100 100 100 100 53 20 13
2 4 90 100 12 5 4 5 20 5 0 0 0 1 0 0 0 0 0 0 0 0 0 0 0 11 8 55 50 29 1 0 4 100 100 100 100 100 100 100 100 100 100 92 100 100 31 21 11
71 80 97 100 60 11 5 2 24 4 0 0 5 5 1 0 0 0 0 0 0 0 0 0 0 0 0 8 38 93 5 0 5 8 81 100 100 100 95 90 74 100 100 76 23 21 21 0 47

GFSSGP_prec_cloud_072.txt.gz
Cloud_Cover
100 100 98 98 66 100 14 100 6 40 76 84 5 5 2 0 0 2 0 0 0 0 5 69 19 17 4 0 0 0 4 5 3 0 0 0 0 4 5 3 4 34 10 60 2 5 5 5 5
100 100 100 100 100 85 63 84 32 64 97 98 67 17 5 3 0 0 0 0 0 1 5 5 5 3 2 5 5 5 5 5 5 5 2 0 0 2 2 5 4 0 0 0 1 5 5 80 33
100 100 100 100 100 100 91 5 100 56 75 100 99 43 7 30 5 2 0 0 0 0 5 5 100 67 7 23 5 5 5 5 5 5 1 0 0 0 0 1 2 1 0 2 5 1 2 10 17
100 100 100 100 100 100 98 5 5 5 100 92 100 88 5 6 40 5 8 5 1 0 0 2 7 22 6 5 5 5 1 0 0 0 0 0 0 0 4 5 4 5 2 2 1 0 0 0 0
100 100 100 100 100 100 100 100 6 5 50 78 100 100 73 15 63 23 79 22 5 6 7 7 4 1 0 0 0 0 0 0 0 0 0 0 0 0 5 0 5 0 0 0 0 0 0 0 0
100 100 100 100 100 100 100 100 83 6 6 20 5 89 76 26 23 38 17 36 5 12 50 7 5 5 5 0 2 0 0 0 0 0 0 0 0 0 5 90 5 0 1 2 0 0 0 0 0
100 100 100 100 100 100 100 100 100 96 4 5 14 8 98 55 5 6 5 99 23 5 6 13 5 5 6 5 4 0 0 0 0 0 0 0 0 5 5 4 0 3 42 5 5 0 0 5 1
100 100 100 100 100 100 100 100 100 100 95 38 7 39 93 95 52 5 5 76 68 55 0 0 0 0 5 5 5 5 0 0 0 0 0 0 0 2 4 1 0 0 5 6 8 7 5 5 5
62 100 100 100 100 100 100 100 100 100 100 100 21 86 63 34 100 5 44 98 29 100 5 5 0 0 0 0 5 7 9 2 2 5 0 28 2 1 4 0 0 5 5 17 99 39 5 5 0
5 52 100 100 100 100 100 100 100 100 100 100 100 46 5 7 5 12 10 78 43 94 94 58 5 3 3 5 2 5 0 2 1 2 0 0 5 0 0 1 3 73 5 12 71 5 5 5 6
0 6 92 55 6 100 47 100 100 100 100 100 100 100 100 100 100 83 5 92 93 100 37 22 55 9 74 28 5 5 5 5 2 2 2 2 5 0 3 5 5 22 24 24 57 38 5 7 7
0 0 5 35 9 6 27 24 100 100 100 100 100 100 100 99 100 96 36 99 100 94 100 91 100 100 87 98 95 100 100 68 5 5 5 29 100 100 1 3 5 12 96 13 46 5 5 8 57
0 0 0 4 5 25 5 5 43 100 100 100 100 100 100 52 100 96 10 99 100 93 76 99 100 95 97 100 100 100 100 100 100 67 95 75 19 5 2 3 3 35 100 53 13 9 6 8 82
0 0 0 0 0 5 5 5 4 42 100 100 100 100 100 100 100 100 93 55 100 100 100 89 89 84 100 100 99 100 100 91 99 97 64 20 68 59 5 16 100 15 7 5 22 55 28 68 19
0 0 0 0 0 0 0 4 5 4 5 91 100 100 100 100 100 100 100 100 100 100 100 100 100 100 97 100 100 83 97 92 100 98 100 100 84 94 18 68 94 100 57 5 5 5 100 69 68
0 0 0 0 0 0 0 0 0 3 4 16 100 100 100 100 100 100 100 100 100 100 100 98 100 100 100 100 97 80 100 100 100 100 100 100 69 94 100 99 100 100 100 62 100 100 100 100 86
0 0 0 0 0 0 0 0 0 0 0 90 100 100 100 100 100 100 100 100 100 100 100 100 100 100 100 100 100 100 100 100 100 100 100 100 100 90 98 83 100 72 73 93 100 100 100 100 96
0 0 0 0 0 0 0 0 0 0 0 69 100 100 100 100 100 100 100 100 100 100 100 100 100 100 100 100 100 100 100 100 93 59 98 45 92 98 82 85 80 58 100 97 66 100 100 100 98
0 0 5 5 0 0 0 0 0 0 0 0 100 100 100 100 100 100 100 100 100 100 100 100 100 100 100 100 100 100 100 100 100 98 100 75 71 37 97 99 100 84 96 100 100 100 100 100 100
0 0 5 5 4 4 1 0 0 0 0 0 58 100 100 100 100 100 100 100 100 100 100 100 100 100 100 100 100 100 100 100 98 85 99 100 100 99 88 65 74 13 43 100 95 56 100 100 100
0 0 2 16 46 10 5 0 0 0 0 0 39 100 100 100 100 100 100 100 100 96 100 100 100 100 100 100 100 100 100 100 100 100 100 100 88 97 77 85 99 26 90 96 100 94 98 100 98
4 4 5 5 29 100 5 27 0 0 0 0 0 100 100 100 100 100 100 100 100 100 100 100 100 97 97 100 100 100 100 100 100 100 100 100 100 94 30 17 41 61 40 59 99 100 100 100 100
3 3 5 5 5 19 98 11 76 5 0 0 0 0 92 100 100 100 100 100 100 100 100 100 100 77 61 16 94 99 100 100 100 100 97 100 100 96 100 100 98 63 58 73 100 89 98 100 100
9 4 3 5 5 5 87 73 95 87 4 0 0 0 0 69 100 100 100 100 100 100 100 100 100 100 100 47 46 77 59 95 100 100 100 100 94 100 99 100 100 100 85 100 97 99 100 100 100
1 7 80 82 94 9 5 16 100 80 5 3 0 0 0 0 0 4 27 100 100 100 100 100 100 100 100 99 54 73 64 22 21 79 96 100 90 93 100 100 100 100 100 98 100 98 91 100 100
100 100 100 100 90 80 3 17 15 27 10 6 4 0 0 0 0 0 0 14 100 100 100 100 100 100 100 100 100 62 20 100 100 100 100 86 100 100 100 100 100 100 25 99 99 100 100 100 100
90 100 95 97 85 10 3 1 5 12 5 5 27 5 0 0 0 0 0 0 0 63 100 100 100 100 100 100 100 97 39 65 100 100 97 45 100 100 100 100 100 98 42 100 100 100 100 100 100
61 63 100 81 17 26 32 76 54 12 5 5 2 6 13 16 1 1 0 0 0 0 0 10 24 97 100 100 100 97 100 100 100 100 100 100 100 100 100 100 100 100 100 100 100 100 100 100 100
88 69 99 100 89 100 99 96 68 41 10 5 5 5 5 24 11 5 2 4 3 0 0 0 0 0 9 86 100 100 100 100 100 100 100 100 100 100 100 100 100 100 100 100 100 100 100 100 99
100 100 100 100 100 100 100 6 98 100 26 5 58 49 5 5 5 5 5 5 1 4 0 0 0 0 0 0 1 89 100 100 100 98 100 100 100 100 100 100 100 100 57 100 100 100 100 100 100